Wind_Speed
24 24 22 19 21 19 9 6 5 4 8 11 13 15 16 17 17 17 16 16 16 15 15 14 14 13 12 12 12 13 11 9
24 22 22 21 20 18 17 9 8 7 7 9 13 17 17 18 19 19 18 18 17 16 16 16 15 15 14 13 13 14 13 11
25 24 23 21 19 19 18 14 12 7 8 10 11 14 18 20 20 21 20 20 19 19 18 18 17 16 15 15 14 13 13 12
26 25 24 23 21 20 19 19 17 13 11 11 12 14 15 18 21 23 22 23 22 21 20 19 18 15 15 16 15 14 14 13
25 25 25 26 24 23 22 22 19 19 15 13 13 12 15 18 21 23 22 23 22 21 21 20 19 18 17 16 16 17 16 14
23 24 25 26 25 23 23 22 22 21 20 18 17 15 14 13 19 23 24 25 26 25 24 22 22 21 20 20 19 18 17 19
23 23 25 26 24 24 22 21 21 21 22 21 19 19 17 17 13 20 25 28 26 27 28 28 24 23 21 21 21 21 22 21
21 21 22 24 23 23 21 20 21 20 20 20 21 17 21 22 20 19 19 28 32 29 31 32 31 24 23 23 23 21 22 22
22 21 22 22 21 21 19 18 19 19 19 20 20 19 19 20 24 24 25 16 30 34 33 32 31 27 26 24 23 23 23 23
22 21 22 23 22 21 19 18 19 19 18 20 20 18 18 20 20 21 23 26 16 32 34 32 32 31 28 27 24 24 24 23
20 20 21 23 22 21 21 21 19 20 21 20 19 20 19 18 20 22 21 23 29 21 33 37 35 32 30 29 27 26 26 24
19 20 21 23 21 22 23 22 22 23 23 22 23 22 22 22 21 23 23 25 26 31 27 37 35 33 28 28 28 26 25 25
19 22 23 24 23 26 26 27 28 25 24 25 26 24 24 23 22 22 21 23 27 27 30 22 31 33 23 23 24 27 26 25
20 20 21 20 21 22 21 25 24 25 24 27 28 27 26 26 24 25 24 24 24 27 28 29 27 20 21 17 7 14 21 27
19 19 20 20 22 21 22 22 21 22 25 28 27 28 28 28 27 28 27 26 27 29 27 26 23 26 28 12 6 8 12 17
17 19 19 19 20 21 23 22 24 26 26 27 30 28 27 26 28 29 29 29 28 30 29 28 27 25 25 39 25 1 7 6
16 18 19 20 21 22 24 25 25 25 26 27 27 29 26 25 25 27 27 28 30 31 31 29 30 27 25 15 6 17 8 5
17 20 21 22 23 25 25 25 26 28 27 26 27 26 28 26 27 29 29 30 31 32 31 32 32 31 34 26 22 14 15 6
18 20 22 24 24 25 25 26 24 23 25 26 26 27 27 29 29 27 26 27 31 30 30 32 32 29 28 28 31 31 25 20
17 19 20 21 23 24 25 24 23 21 23 25 24 24 25 29 27 23 22 22 24 23 27 26 27 27 30 30 22 17 19 13
Wind_Direction
44 41 40 44 43 36 24 357 349 296 265 258 242 234 231 224 222 220 219 219 219 216 215 217 216 215 213 216 214 215 216 218
36 35 33 31 28 34 36 19 355 345 308 271 259 260 242 237 233 230 227 226 226 226 225 223 219 217 217 221 221 219 226 232
25 24 22 20 19 14 15 21 21 344 323 304 292 269 263 252 237 235 235 233 231 229 229 228 225 223 223 223 221 222 225 230
14 13 12 10 7 3 1 357 1 360 349 325 307 290 279 271 260 250 239 241 237 234 232 231 229 223 223 221 221 223 224 232
7 6 5 3 360 357 353 349 343 336 334 331 318 300 287 281 275 265 249 242 239 237 231 228 227 223 220 218 218 223 223 225
1 2 0 358 356 352 349 346 340 330 322 317 312 310 292 284 276 270 262 247 240 235 231 227 229 229 228 226 222 221 222 225
359 358 356 354 352 348 346 342 338 330 322 316 312 303 291 282 276 269 264 261 245 238 234 234 232 229 228 228 225 224 225 227
355 356 353 350 347 345 341 339 334 329 324 319 315 302 292 287 279 266 261 255 256 244 238 234 235 232 230 227 229 225 225 224
355 352 349 349 344 341 340 336 334 326 320 319 314 306 296 287 281 279 255 260 252 246 243 238 234 231 232 228 229 229 225 225
352 349 345 345 342 340 338 336 332 327 321 316 313 306 299 293 281 274 277 259 252 245 231 232 229 228 230 228 226 228 227 224
351 349 346 343 339 340 340 337 336 328 322 317 313 308 301 295 288 279 272 273 264 253 234 225 221 218 223 229 224 222 224 222
352 350 347 344 343 342 339 337 334 329 323 316 310 307 298 292 287 284 280 274 266 266 252 234 223 218 209 223 229 223 224 222
360 353 351 349 347 343 340 335 330 326 324 318 314 306 299 293 286 287 280 269 263 262 262 252 226 217 203 212 228 228 217 223
358 355 350 349 345 338 333 328 325 320 323 318 312 306 301 293 283 285 280 273 270 262 260 263 256 248 205 192 201 217 221 220
356 353 351 350 348 343 337 332 329 327 324 318 314 307 301 291 288 283 280 273 267 266 262 260 260 244 228 229 193 224 208 209
356 358 358 354 352 348 343 338 333 326 321 317 312 308 306 300 292 286 277 273 267 261 259 251 250 234 213 219 214 244 202 189
1 1 2 0 358 355 351 343 338 335 333 327 319 315 315 314 311 306 290 279 264 258 255 248 247 228 222 195 287 267 294 237
4 3 6 5 2 2 359 352 347 343 340 337 330 328 328 327 324 320 308 300 291 258 253 247 248 236 232 229 200 193 231 207
4 3 7 7 8 8 4 1 354 349 347 343 341 338 338 334 335 331 324 313 300 267 249 244 244 237 219 214 212 213 217 207
5 8 6 8 11 11 10 8 2 0 357 352 351 349 349 350 349 351 342 331 316 286 246 241 242 242 214 214 207 208 222 235
Height
815 814 813 813 813 812 810 810 808 808 809 810 809 809 809 808 809 809 810 811 811 811 811 812 812 813 814 815 816 818 819 819
817 816 814 812 812 812 811 809 808 807 806 807 808 809 806 806 807 807 808 809 809 810 810 811 811 812 812 814 815 816 818 818
818 817 815 814 812 811 809 809 807 806 805 805 805 804 805 805 803 804 805 806 807 807 808 809 810 811 811 811 813 815 816 816
819 818 816 814 812 811 809 807 806 805 804 803 802 802 801 801 801 801 801 803 804 804 805 806 808 809 809 809 810 811 812 813
824 820 818 815 812 810 808 807 805 803 802 801 799 798 798 798 797 797 797 798 800 801 801 802 804 805 805 805 806 807 808 810
826 822 819 816 813 810 808 806 804 801 799 798 797 794 794 793 793 793 794 794 795 796 797 797 797 799 800 801 801 803 804 805
826 823 820 816 813 810 807 804 802 799 797 795 793 791 790 789 788 788 788 789 789 790 791 792 792 793 795 797 797 798 799 801
827 824 821 817 813 810 807 803 800 797 794 791 789 788 785 784 782 781 781 782 784 784 784 785 786 789 789 790 792 793 795 796
826 823 820 817 814 810 806 802 798 794 791 787 785 783 782 779 776 775 775 775 775 777 778 779 779 782 784 784 786 788 789 792
827 823 820 816 812 808 804 799 796 793 789 784 781 779 778 775 773 769 769 768 768 768 769 771 770 772 776 777 779 782 783 786
827 824 820 816 811 807 801 796 792 789 787 783 779 775 774 771 768 765 763 762 759 759 757 758 757 757 763 770 770 772 775 778
828 824 820 815 810 805 800 794 790 786 782 780 776 772 769 766 763 760 758 755 753 751 749 746 748 751 748 760 765 765 769 771
826 822 819 815 810 804 798 793 788 783 778 776 772 768 765 762 759 756 753 750 748 745 742 744 734 748 744 747 757 759 758 763
827 824 819 816 812 807 801 794 788 782 775 772 767 763 760 757 754 750 747 744 741 739 736 732 736 724 725 735 744 752 752 751
827 824 820 815 810 805 799 793 786 780 775 768 764 760 755 752 748 744 740 739 735 733 732 730 724 728 728 726 728 736 738 741
828 823 819 815 810 805 799 793 786 782 774 767 763 757 750 745 741 736 733 731 728 726 726 725 725 720 720 722 725 724 729 732
827 823 818 814 809 804 797 792 786 778 772 767 760 752 745 739 733 728 725 722 719 717 717 717 716 717 716 710 704 719 726 725
826 822 817 812 808 801 796 791 784 776 771 764 756 748 739 733 728 722 718 714 711 708 707 707 706 705 707 709 707 713 727 724
825 821 816 812 807 801 797 790 785 780 773 766 755 745 737 730 724 717 712 706 701 698 696 697 697 696 698 699 703 705 712 717
826 822 818 814 808 803 797 793 788 782 774 766 757 749 739 731 724 715 707 700 694 688 688 690 690 690 692 696 698 703 708 713